Find Starlink 36980

NORAD ID: 68146 Int'l Des: 2026-049 Owner: SPXS Country: US Constellation: starlink operational
LEOCIRCULARRETROGRADE

リアルタイム位置

3D地球を読み込み中...

Starlink 36980について

説明を読み込み中...

次回通過

Passes for default location (London). Set your location on the main map for personalized predictions.

高度履歴

Loading altitude history...

軌道要素

1 68146U 26049E 26119.83335647 -.01944741 00000-0 -21515-1 0 9991
2 68146 97.2837 141.7075 0001648 76.1529 3.2989 15.66085064 6027
Epoch: Apr 29, 2026 • Age: 6 hours

現在のステータス

高度 379.9 km
速度 7.69 km/s
衛星直下点 45.71°N, 75.89°E
打ち上げ日 Mar 13, 2026
運用期間 0.1 years
タイプ internet

技術仕様

分類 Payload
質量 575.00 kg
乾燥質量 530.00 kg
総質量 575.00 kg
長さ 0.30 m
直径 4.10 m
スパン 29.00 m
形状 Box + pan
製造者 SPXS
バスタイプ Starlink V2MO
フェーズステータス In Orbit
所有者/国 SPXS/US

Most Searched